User: anonymous   Login
Location: Unspecified
(0.0000°N, 0.0000°E)
Time: 02:35:33
(UTC+02:00)
Language:

ARIANE 5 R/B - Orbit

View from above orbital plane
View from above orbital plane
View from above satellite
View from above satellite

Ground track
Ground track

The orbit data is extracted from the following two-line orbital elements,

1 28379U 04027B   17085.53937708 -.00000241 +00000-0 -18183-3 0  9998
2 28379 007.2311 356.1114 7292349 018.1215 087.1636 02.07931592096420
Epoch (UTC): 26 March 2017 12:56:42
Eccentricity: 0.7292349
inclination: 7.2311°
perigee height: 642 km
apogee height: 38459 km
right ascension of ascending node: 356.1114°
argument of perigee: 18.1215°
revolutions per day: 2.07931592
mean anomaly at epoch: 87.1636°
orbit number at epoch: 9642

The dashed part of the orbit path shows where the satellite is in the earth's shadow,  

DLR